Weather History for Garrison, ND

Change the Weather History Date:

Wednesday, August 28, 2013

  Actual Average Record
Temperature  
Mean Temperature 77 °F -  
Max Temperature 92 °F 79 °F 95 °F (1996)
Min Temperature 62 °F 51 °F 45 °F (2004)
Cooling Degree Days 12    
Month to date cooling degree days 129  
Year to date cooling degree days 290  
Since 1 June cooling degree days 284  
Growing Degree Days 26 (Base 50)    
Moisture  
Dew Point 66 °F    
Average Humidity 67    
Maximum Humidity 93    
Minimum Humidity 41    
Precipitation  
Precipitation 0.00 in - - ()
Month to date precipitation 2.85  
Year to date precipitation 21.70  
Sea Level Pressure  
Sea Level Pressure 29.94 in    
Wind  
Wind Speed 4 mph (ESE)    
Max Wind Speed 8 mph    
Max Gust Speed -    
Averages and records for this station are not official NWS values.
T = Trace of Precipitation, MM = Missing Value Source: NWS Daily Summary

Daily Weather History Graph

Daily Weather History Graph

Search for Another Location

Airport:

Trip Planner

Search our weather history database for the weather conditions in past years. The results will help you decide how hot, cold, wet, or windy it might be!

Date:

Astronomy

Aug. 28, 2013 Rise Set
Actual Time 6:59 AM CDT 8:33 PM CDT
Civil Twilight 6:26 AM CDT 9:05 PM CDT
Nautical Twilight 5:47 AM CDT 9:44 PM CDT
Astronomical Twilight 5:04 AM CDT 10:27 PM CDT
Moon No Moon Rise 3:25 PM CDT (8/28)
Length of Visible Light 14h 38m
Length of Day
13h 34m
Waning Gibbous, 47% of the Moon is Illuminated
Aug 28
Waning Gibbous
Sep 5
New
Sep 12
First Quarter
Sep 19
Full
Sep 26
Last Quarter

Hourly Weather History & Observations

Time (CDT) Temp. Heat Index Dew Point Humidity Pressure Visibility Wind Dir Wind Speed Gust Speed Precip Events Conditions
12:52 AM 68.0 °F - 66.0 °F 93% 29.96 in - Calm Calm - N/A   Unknown
1:52 AM 64.9 °F - 63.0 °F 93% 29.95 in - Calm Calm - N/A   Unknown
2:52 AM 64.0 °F - 62.1 °F 93% 29.96 in - North 4.6 mph - N/A   Unknown
3:52 AM 64.9 °F - 63.0 °F 93% 29.96 in - North 3.5 mph - N/A   Unknown
4:52 AM 64.0 °F - 63.0 °F 96% 29.96 in - North 4.6 mph - N/A   Unknown
5:52 AM 62.1 °F - 61.0 °F 96% 29.96 in - Calm Calm - N/A   Unknown
6:52 AM 62.1 °F - 61.0 °F 96% 29.97 in - North 3.5 mph - N/A   Unknown
7:52 AM 64.0 °F - 63.0 °F 96% 29.97 in - Calm Calm - N/A   Unknown
8:52 AM 66.9 °F - 64.9 °F 93% 29.99 in - Calm Calm - N/A   Unknown
9:52 AM 75.9 °F - 68.0 °F 76% 29.98 in - Calm Calm - N/A   Unknown
10:52 AM 80.1 °F 82.7 °F 68.0 °F 67% 29.98 in - Variable 5.8 mph - N/A   Unknown
11:52 AM 84.0 °F 84.9 °F 63.0 °F 49% 29.98 in - East 5.8 mph - N/A   Unknown
12:52 PM 86.0 °F 88.8 °F 66.9 °F 53% 29.97 in - South 4.6 mph - N/A   Unknown
1:52 PM 89.1 °F 90.3 °F 64.0 °F 43% 29.95 in - SSE 8.1 mph - N/A   Unknown
2:52 PM 90.0 °F 91.7 °F 64.9 °F 43% 29.94 in - South 8.1 mph - N/A   Unknown
3:52 PM 91.0 °F 93.0 °F 64.9 °F 42% 29.93 in - SE 5.8 mph - N/A   Unknown
4:52 PM 91.0 °F 92.6 °F 64.0 °F 41% 29.91 in - South 6.9 mph - N/A   Unknown
5:52 PM 90.0 °F 91.7 °F 64.9 °F 43% 29.91 in - SSE 6.9 mph - N/A   Unknown
6:52 PM 89.1 °F 104.4 °F 79.0 °F 72% 29.89 in - SSE 8.1 mph - N/A   Unknown
7:52 PM 84.0 °F 92.6 °F 75.9 °F 76% 29.88 in - SE 5.8 mph - N/A   Unknown
8:52 PM 78.1 °F - 68.0 °F 71% 29.89 in - East 4.6 mph - N/A   Unknown
9:52 PM 75.9 °F - 66.9 °F 74% 29.88 in - East 5.8 mph - N/A   Unknown
10:52 PM 75.0 °F - 66.9 °F 76% 29.88 in - Calm Calm - N/A   Unknown
11:52 PM 73.0 °F - 66.9 °F 81% 29.87 in - ESE 5.8 mph - N/A   Unknown